TimeCET,TemperatureF,Dew PointF,Humidity,Sea Level PressureIn,VisibilityMPH,Wind Direction,Wind SpeedMPH,Gust SpeedMPH,PrecipitationIn,Events,Conditions,WindDirDegrees,DateUTC
12:00 AM,42.8,28.4,57,29.59,6.2,West,2.3,-,N/A,,Mostly Cloudy,270,2013-02-11 23:00:00
12:30 AM,44.6,26.6,49,29.59,6.2,NW,6.9,-,N/A,,Scattered Clouds,310,2013-02-11 23:30:00
1:00 AM,46,29,38,29.58,19,North,5.8,,,,Mostly Cloudy,350,2013-02-12 00:00:00
1:00 AM,44.6,26.6,49,29.56,6.2,North,4.6,-,N/A,,Partly Cloudy,350,2013-02-12 00:00:00
1:30 AM,41.0,28.4,61,29.59,6.2,East,4.6,-,N/A,,Partly Cloudy,100,2013-02-12 00:30:00
2:00 AM,42.8,28.4,57,29.56,6.2,North,4.6,-,N/A,,Partly Cloudy,360,2013-02-12 01:00:00
2:30 AM,42.8,26.6,53,29.56,6.2,NNW,5.8,-,N/A,,Partly Cloudy,330,2013-02-12 01:30:00
3:00 AM,42.8,28.4,57,29.59,6.2,NNW,4.6,-,N/A,,Partly Cloudy,330,2013-02-12 02:00:00
3:30 AM,42.8,28.4,57,29.56,6.2,NW,5.8,-,N/A,,Partly Cloudy,310,2013-02-12 02:30:00
4:00 AM,42.8,28.4,57,29.56,6.2,NW,4.6,-,N/A,,Partly Cloudy,320,2013-02-12 03:00:00
4:30 AM,41.0,28.4,61,29.56,6.2,Variable,2.3,-,N/A,,Partly Cloudy,0,2013-02-12 03:30:00
5:00 AM,42.8,28.4,57,29.59,6.2,NW,5.8,-,N/A,,Scattered Clouds,310,2013-02-12 04:00:00
5:30 AM,42.8,28.4,57,29.59,6.2,NNW,4.6,-,N/A,,Scattered Clouds,330,2013-02-12 04:30:00
6:00 AM,42.8,30.2,61,29.62,6.2,NNW,3.5,-,N/A,,Scattered Clouds,340,2013-02-12 05:00:00
6:30 AM,41.0,32.0,70,29.62,6.2,Variable,1.2,-,N/A,,Mostly Cloudy,0,2013-02-12 05:30:00
7:00 AM,41,33,64,29.64,,NNE,9.2,,,,,20,2013-02-12 06:00:00
7:00 AM,39.2,32.0,75,29.62,6.2,NNE,9.2,-,N/A,,Mostly Cloudy,20,2013-02-12 06:00:00
7:30 AM,39.2,32.0,75,29.62,6.2,North,5.8,-,N/A,,Mostly Cloudy,10,2013-02-12 06:30:00
8:00 AM,39.2,32.0,75,29.65,6.2,Variable,2.3,-,N/A,,Partly Cloudy,0,2013-02-12 07:00:00
8:30 AM,41.0,32.0,70,29.68,6.2,Variable,2.3,-,N/A,,Partly Cloudy,0,2013-02-12 07:30:00
9:00 AM,42.8,30.2,61,29.68,6.2,North,3.5,-,N/A,,Partly Cloudy,360,2013-02-12 08:00:00
9:30 AM,42.8,28.4,57,29.68,6.2,NNE,8.1,-,N/A,,Partly Cloudy,20,2013-02-12 08:30:00
10:00 AM,41.0,30.2,65,29.71,6.2,Variable,2.3,-,N/A,,Partly Cloudy,0,2013-02-12 09:00:00
10:30 AM,46.4,30.2,53,29.71,6.2,East,1.2,-,N/A,,Partly Cloudy,90,2013-02-12 09:30:00
11:00 AM,48.2,30.2,50,29.71,6.2,Calm,Calm,-,N/A,,Partly Cloudy,0,2013-02-12 10:00:00
11:30 AM,50.0,30.2,47,29.74,6.2,East,3.5,-,N/A,,Partly Cloudy,80,2013-02-12 10:30:00
12:00 PM,51.8,23.0,33,29.74,6.2,Variable,3.5,-,N/A,,Partly Cloudy,0,2013-02-12 11:00:00
12:30 PM,51.8,28.4,41,29.77,6.2,SSW,3.5,-,N/A,,Partly Cloudy,210,2013-02-12 11:30:00
1:00 PM,56,29,23,29.75,,SSW,6.9,,,,,210,2013-02-12 12:00:00
1:00 PM,51.8,28.4,41,29.77,6.2,SW,6.9,-,N/A,,Partly Cloudy,220,2013-02-12 12:00:00
1:30 PM,53.6,24.8,33,29.77,6.2,SSW,6.9,-,N/A,,Partly Cloudy,200,2013-02-12 12:30:00
2:00 PM,53.6,23.0,30,29.74,6.2,South,8.1,-,N/A,,Partly Cloudy,190,2013-02-12 13:00:00
2:30 PM,55.4,24.8,31,29.77,6.2,South,9.2,-,N/A,,Partly Cloudy,190,2013-02-12 13:30:00
3:00 PM,53.6,24.8,33,29.77,6.2,South,8.1,-,N/A,,Partly Cloudy,190,2013-02-12 14:00:00
3:30 PM,55.4,28.4,36,29.77,6.2,South,10.4,-,N/A,,Partly Cloudy,180,2013-02-12 14:30:00
4:00 PM,55.4,30.2,38,29.77,6.2,South,10.4,-,N/A,,Partly Cloudy,190,2013-02-12 15:00:00
4:30 PM,53.6,30.2,41,29.77,6.2,South,12.7,-,N/A,,Partly Cloudy,190,2013-02-12 15:30:00
5:00 PM,51.8,30.2,44,29.80,6.2,South,10.4,-,N/A,,Partly Cloudy,180,2013-02-12 16:00:00
5:30 PM,51.8,30.2,44,29.80,6.2,SSE,8.1,-,N/A,,Partly Cloudy,160,2013-02-12 16:30:00
6:00 PM,50.0,33.8,54,29.80,6.2,South,8.1,-,N/A,,Partly Cloudy,170,2013-02-12 17:00:00
6:30 PM,46.4,32.0,57,29.83,6.2,SSW,6.9,-,N/A,,Partly Cloudy,200,2013-02-12 17:30:00
7:00 PM,46,35,54,29.84,12,WSW,3.5,,,,Scattered Clouds,250,2013-02-12 18:00:00
7:00 PM,44.6,32.0,61,29.83,6.2,WSW,3.5,-,N/A,,Partly Cloudy,240,2013-02-12 18:00:00
7:30 PM,42.8,33.8,70,29.83,6.2,West,3.5,-,N/A,,Partly Cloudy,270,2013-02-12 18:30:00
8:00 PM,42.8,33.8,70,29.86,6.2,West,4.6,-,N/A,,Partly Cloudy,270,2013-02-12 19:00:00
8:30 PM,42.8,32.0,66,29.86,6.2,West,3.5,-,N/A,,Partly Cloudy,270,2013-02-12 19:30:00
9:00 PM,41.0,32.0,70,29.86,6.2,West,3.5,-,N/A,,Partly Cloudy,260,2013-02-12 20:00:00
9:30 PM,39.2,32.0,75,29.86,6.2,Variable,1.2,-,N/A,,Partly Cloudy,0,2013-02-12 20:30:00
10:00 PM,37.4,32.0,81,29.89,6.2,NE,3.5,-,N/A,,Partly Cloudy,50,2013-02-12 21:00:00
10:30 PM,37.4,32.0,81,29.89,6.2,NNE,4.6,-,N/A,,Partly Cloudy,20,2013-02-12 21:30:00
11:00 PM,39.2,32.0,75,29.89,6.2,NNE,6.9,-,N/A,,Partly Cloudy,20,2013-02-12 22:00:00
11:30 PM,39.2,32.0,75,29.92,6.2,North,6.9,-,N/A,,Partly Cloudy,10,2013-02-12 22:30:00